Terug naar catalogus

STARLINK-5399

ActiefCommunicatieVLEO
NORAD 54788·PAYLOAD·🇺🇸 United States

Gelanceerd Dec 17, 2022 vanaf Cape Canaveral Space Force Station

Loading…

Volgende Passages (komende 24 uur)

TLE

VersSource: CelesTrak SupGP

Epoch: Sep 14, 2026, 20:44 UTC

1 54788C 22175AG  26257.86437500  .00046512  00000+0  13744-2 0  2579
2 54788  53.1572 245.7935 0001320  93.0058 147.2192 15.34363716    19

Volg STARLINK-5399 in realtime met AllMySat

Download on the App Store